Wind_Speed
16 16 16 17 17 17 17 18 18 18 17 17 17 17 16 16 16 17 17 17 16 16 16 16 16 17 17 17 17 17 16 16 16 16 16 16 16 16 16 16 17 17 17
17 17 18 19 19 19 19 19 19 19 18 18 18 18 18 18 18 19 18 18 18 18 18 18 17 17 17 17 18 18 19 19 18 18 18 19 18 18 18 18 19 19 19
19 19 19 20 20 20 20 20 20 20 19 20 20 20 20 20 20 20 20 20 20 20 20 20 20 20 19 19 20 20 19 20 20 19 20 21 20 20 19 19 20 20 21
20 19 20 20 21 20 21 21 21 20 20 21 20 20 21 21 22 22 22 22 22 22 22 22 22 22 22 22 22 21 21 21 21 22 22 22 23 22 22 22 22 22 22
21 21 22 21 21 21 22 22 22 22 22 22 22 22 21 21 22 22 22 23 23 24 24 23 24 24 23 23 23 23 23 23 23 23 24 25 25 25 25 25 24 25 25
22 22 22 23 22 22 23 23 23 23 23 24 23 22 22 23 23 23 24 24 24 24 24 24 25 25 25 25 25 25 25 25 25 25 25 26 27 27 27 28 27 27 27
23 23 23 23 24 24 24 24 24 25 25 25 25 24 24 24 24 24 24 24 25 25 25 25 26 26 26 27 27 27 27 27 27 27 27 27 28 29 30 30 29 29 28
24 24 24 25 26 26 26 26 25 26 26 26 26 26 25 25 25 25 26 26 26 26 27 27 27 27 28 28 28 28 28 28 29 29 28 28 28 29 30 29 29 30 30
26 26 27 27 28 28 27 27 27 27 27 27 27 27 27 27 27 27 28 28 28 28 29 29 29 29 29 29 29 29 29 30 30 30 30 30 30 30 30 30 30 30 30
27 27 28 28 28 28 27 28 28 28 28 28 28 28 29 29 29 29 29 30 30 30 30 31 31 30 31 31 31 31 31 31 32 32 32 32 32 31 32 32 31 31 31
28 29 29 29 29 29 29 29 29 29 29 29 29 29 30 30 31 31 30 30 31 31 31 32 32 32 32 32 32 32 32 33 33 33 33 34 34 34 34 34 33 33 32
29 30 30 30 30 30 30 29 29 29 29 29 30 30 30 30 31 31 31 32 32 32 32 33 34 34 33 32 33 33 33 33 33 34 34 34 34 34 34 34 34 34 32
30 30 31 31 31 31 31 31 31 30 30 30 30 30 30 31 31 31 32 32 33 32 32 32 32 32 31 31 32 32 33 32 32 32 33 33 34 34 33 33 34 33 33
30 31 32 32 32 32 32 32 32 32 32 31 31 31 31 31 31 32 32 32 32 31 31 30 30 30 30 30 30 30 31 31 31 31 32 33 33 33 33 33 34 33 33
31 32 32 32 32 32 32 32 32 32 32 32 31 31 32 31 31 32 32 32 31 30 29 29 28 28 28 29 29 29 30 31 30 30 30 30 30 30 31 32 33 33 33
32 31 32 32 33 32 31 31 30 31 32 32 32 32 32 32 31 31 32 32 31 30 29 28 28 28 28 29 29 29 30 31 31 30 30 30 29 29 30 30 30 30 31
32 32 31 32 32 32 32 31 31 31 32 32 32 33 33 33 32 32 31 31 30 29 28 27 27 28 28 29 29 29 29 30 30 31 30 30 30 30 30 29 29 29 30
32 32 31 31 31 31 31 31 31 32 32 32 32 33 33 32 32 32 31 31 30 29 28 28 28 28 28 29 29 29 28 29 30 30 30 30 30 30 30 29 29 30 30
32 32 32 32 32 32 31 31 32 32 32 33 32 33 33 32 32 32 31 31 30 29 29 29 28 28 28 28 28 28 28 29 29 29 29 29 29 29 29 29 29 29 29
32 33 33 33 32 31 31 32 32 32 33 33 33 32 32 32 31 30 30 30 30 29 29 29 29 28 27 27 27 26 26 26 26 26 27 27 27 27 28 27 27 28 28
31 32 32 32 32 31 32 32 32 33 33 33 33 33 32 32 31 30 29 29 29 29 28 28 28 28 28 26 25 26 26 25 26 25 25 26 26 27 27 27 27 27 27
30 31 31 31 32 32 32 32 32 32 33 33 33 32 32 31 31 30 30 30 29 29 28 28 27 27 26 25 25 25 26 26 26 26 26 26 26 26 26 26 27 27 27
30 30 31 31 32 32 32 31 31 32 32 32 33 32 31 31 31 31 31 30 29 29 28 28 27 26 26 26 26 27 26 25 25 25 25 25 25 25 25 25 25 26 25
30 29 29 30 30 31 31 31 31 31 32 31 31 31 30 30 30 30 30 29 29 29 28 27 26 26 26 26 26 26 26 26 26 24 23 23 23 23 23 22 23 24 24
28 28 29 29 30 30 30 31 31 31 31 30 30 29 29 29 28 28 28 28 28 28 27 26 26 25 26 27 27 26 26 26 25 24 23 23 23 23 23 23 22 23 24
27 28 28 28 28 29 29 29 30 30 29 28 28 28 27 27 27 27 26 27 27 27 26 25 25 25 26 26 26 25 24 24 23 23 23 23 22 23 23 23 23 22 22
Wind_Direction
318 316 315 318 320 320 319 317 316 316 314 311 308 307 306 305 303 301 300 299 297 296 295 290 287 286 285 282 281 281 279 277 273 269 269 270 269 269 269 269 273 272 272
314 313 313 314 315 316 316 315 314 312 310 309 307 305 303 301 299 299 298 297 296 293 292 290 287 285 285 283 282 282 280 279 278 272 269 270 270 269 270 270 271 272 272
313 310 312 314 312 311 311 313 314 311 310 309 305 303 302 300 298 297 295 294 293 292 290 288 287 284 283 281 281 280 280 279 278 274 270 270 271 269 269 270 271 272 273
311 308 310 311 310 309 310 311 312 310 308 307 304 303 301 299 298 296 294 292 291 291 290 287 286 284 281 280 278 277 277 276 276 274 270 269 268 267 267 268 269 270 270
308 307 307 307 307 308 308 308 309 309 308 307 303 301 300 300 299 297 295 294 292 290 289 286 284 282 281 279 278 275 275 275 275 274 271 270 269 269 269 268 268 269 268
305 307 308 308 308 307 308 307 308 308 308 306 302 301 300 299 298 296 295 294 293 292 289 286 284 282 281 280 278 276 275 275 273 273 272 271 271 270 270 268 267 267 266
305 306 306 306 306 306 306 306 305 305 306 304 302 300 300 299 297 295 295 295 293 292 290 287 284 283 281 279 278 277 276 275 274 273 272 271 272 271 271 271 269 266 266
304 305 305 304 304 305 305 304 303 303 303 303 301 300 299 298 297 296 296 295 294 292 290 288 285 283 281 280 278 276 275 275 274 273 273 271 271 271 271 271 271 268 267
302 303 302 302 302 302 302 302 302 302 302 302 301 300 300 298 298 297 296 295 293 292 290 287 285 283 282 280 279 277 275 274 273 273 272 271 270 270 270 269 268 269 269
300 300 300 300 300 300 300 300 301 301 301 302 302 301 301 299 298 298 297 295 294 292 289 287 284 283 282 281 278 276 275 274 273 272 272 272 270 270 269 268 267 268 267
298 298 299 299 299 298 297 298 299 299 300 301 302 301 300 299 299 298 297 295 295 293 290 288 285 284 283 281 279 277 276 274 273 272 272 272 271 270 269 267 266 266 266
297 297 297 298 298 297 297 297 297 298 299 299 300 300 299 298 298 297 296 295 294 293 291 289 287 285 283 281 280 278 277 276 274 272 271 271 270 270 270 268 266 265 266
295 295 295 296 296 297 298 298 298 297 297 297 298 298 298 298 298 298 297 296 295 294 292 289 288 286 284 283 281 278 277 276 274 273 271 270 270 270 270 269 268 267 266
293 294 295 295 296 296 297 297 297 297 297 297 298 298 298 298 298 298 298 298 297 295 294 291 289 287 286 284 283 281 279 277 277 275 273 272 270 269 269 268 267 265 264
296 295 294 294 296 296 297 297 296 296 297 297 299 300 300 299 299 299 300 301 298 297 296 293 291 288 286 285 284 282 281 280 280 278 275 273 272 270 269 268 267 265 264
294 295 295 294 295 295 296 297 297 298 299 298 299 302 302 302 301 301 301 301 300 298 297 294 292 289 287 287 285 283 282 279 279 278 275 272 272 272 271 269 267 265 265
295 295 296 296 296 296 296 297 297 298 299 300 300 301 303 303 302 302 302 302 300 299 298 295 293 291 289 288 286 284 282 279 278 278 276 273 272 272 272 271 269 266 264
295 297 297 298 298 299 298 298 298 298 300 300 300 301 302 303 302 301 300 300 299 299 298 297 296 294 292 289 287 286 283 281 279 278 277 275 273 271 271 270 269 268 266
295 297 297 298 299 300 299 300 299 299 299 300 300 301 302 301 301 300 299 298 298 298 298 297 295 295 293 291 289 287 286 283 281 279 278 276 274 273 271 270 269 269 268
297 298 298 298 298 299 299 300 300 299 299 300 300 300 301 302 301 300 299 299 297 297 297 297 296 296 295 293 292 291 290 288 284 281 280 278 276 273 271 271 269 270 269
297 298 299 297 298 298 299 300 300 300 300 300 300 299 300 300 299 298 298 298 298 299 299 299 298 297 298 296 294 293 292 290 286 283 281 280 278 276 274 271 271 271 271
297 298 300 300 299 300 301 301 301 300 301 301 300 299 299 299 300 300 297 297 297 297 297 297 298 298 297 296 293 293 293 291 288 285 283 281 279 278 273 271 270 268 269
297 298 300 301 301 302 302 303 303 302 302 301 300 299 297 297 297 299 298 295 294 295 296 296 297 296 295 295 294 293 293 292 290 286 283 280 278 277 274 272 271 270 270
299 300 301 303 305 305 305 305 306 305 303 303 302 300 299 298 297 298 299 298 296 295 294 295 296 295 295 294 296 293 291 291 289 286 282 280 279 278 277 276 274 271 270
302 302 304 305 307 307 307 307 307 307 305 304 303 301 301 300 298 297 298 299 299 299 296 295 296 296 295 295 295 293 292 292 290 287 283 281 280 278 276 275 275 273 271
305 306 307 307 308 309 309 308 308 309 309 308 306 305 302 300 298 299 300 301 301 300 298 297 297 297 297 296 296 294 293 293 291 289 286 282 280 279 276 275 274 274 272
Height
5888 5886 5884 5882 5880 5877 5875 5872 5870 5867 5865 5863 5861 5859 5857 5855 5853 5851 5850 5848 5846 5844 5843 5841 5840 5838 5837 5836 5835 5834 5833 5833 5833 5832 5831 5831 5831 5831 5830 5830 5830 5830 5830
5884 5882 5880 5878 5876 5873 5870 5868 5865 5863 5861 5859 5856 5854 5852 5850 5848 5847 5845 5843 5841 5839 5838 5836 5835 5833 5832 5831 5830 5829 5828 5827 5827 5826 5826 5826 5826 5826 5825 5825 5825 5825 5824
5880 5877 5875 5873 5871 5869 5866 5863 5861 5858 5856 5854 5851 5849 5847 5845 5843 5841 5839 5837 5835 5834 5832 5831 5829 5828 5827 5826 5824 5823 5822 5822 5821 5820 5821 5820 5820 5820 5819 5819 5819 5818 5818
5876 5873 5871 5869 5866 5863 5861 5858 5856 5853 5851 5849 5846 5844 5842 5839 5837 5835 5833 5831 5829 5827 5826 5824 5823 5821 5820 5819 5818 5817 5816 5815 5815 5814 5814 5814 5813 5813 5813 5813 5813 5812 5811
5871 5869 5866 5864 5861 5858 5856 5853 5851 5848 5845 5843 5840 5838 5836 5833 5831 5829 5827 5824 5822 5821 5819 5817 5816 5814 5813 5812 5811 5810 5809 5808 5808 5807 5807 5807 5806 5806 5806 5806 5806 5805 5804
5866 5863 5861 5858 5856 5853 5851 5848 5845 5842 5840 5837 5834 5832 5829 5827 5825 5822 5820 5818 5815 5813 5811 5810 5808 5807 5806 5804 5804 5803 5802 5801 5800 5800 5799 5799 5798 5798 5797 5797 5797 5797 5797
5861 5858 5856 5853 5850 5847 5845 5842 5839 5836 5833 5831 5828 5825 5823 5820 5818 5815 5813 5810 5808 5806 5804 5802 5800 5799 5797 5796 5795 5794 5794 5792 5792 5792 5791 5790 5790 5789 5789 5788 5788 5788 5788
5855 5852 5850 5847 5844 5841 5838 5835 5832 5829 5827 5824 5821 5818 5815 5813 5810 5808 5805 5803 5800 5798 5796 5794 5792 5790 5789 5788 5786 5786 5785 5784 5783 5782 5782 5781 5780 5780 5779 5779 5778 5778 5778
5849 5846 5843 5840 5837 5834 5831 5828 5825 5822 5819 5816 5813 5811 5808 5805 5802 5799 5797 5795 5792 5790 5787 5784 5782 5781 5779 5778 5777 5776 5775 5774 5773 5772 5772 5771 5770 5770 5769 5769 5768 5767 5767
5842 5839 5836 5833 5830 5827 5823 5820 5817 5814 5811 5808 5805 5802 5799 5796 5793 5791 5788 5786 5783 5781 5778 5775 5773 5771 5769 5767 5766 5765 5764 5763 5762 5762 5761 5761 5760 5759 5759 5758 5758 5758 5757
5835 5832 5829 5825 5822 5819 5815 5812 5809 5806 5803 5800 5797 5794 5791 5788 5785 5782 5779 5776 5773 5771 5768 5766 5763 5761 5759 5757 5755 5754 5752 5752 5751 5751 5750 5749 5749 5748 5748 5747 5747 5747 5747
5827 5824 5820 5817 5814 5810 5807 5804 5800 5797 5794 5791 5788 5785 5782 5779 5776 5772 5769 5766 5763 5761 5758 5755 5752 5750 5748 5746 5744 5742 5741 5740 5739 5739 5738 5738 5737 5737 5736 5736 5736 5736 5737
5819 5816 5812 5809 5805 5802 5798 5795 5792 5789 5786 5782 5779 5776 5773 5770 5766 5763 5760 5756 5753 5750 5747 5744 5741 5739 5737 5735 5733 5731 5729 5728 5727 5727 5727 5726 5726 5726 5725 5725 5725 5726 5726
5809 5807 5803 5800 5796 5793 5790 5786 5783 5780 5777 5773 5770 5767 5763 5760 5757 5753 5750 5746 5743 5740 5737 5733 5731 5728 5726 5724 5723 5721 5719 5717 5716 5716 5715 5715 5714 5715 5714 5715 5715 5715 5716
5800 5797 5793 5790 5787 5784 5781 5777 5774 5771 5767 5764 5761 5758 5754 5751 5747 5743 5740 5737 5733 5730 5727 5724 5721 5719 5717 5715 5713 5711 5709 5708 5706 5705 5704 5704 5704 5704 5704 5704 5704 5704 5705
5791 5787 5784 5780 5777 5774 5771 5768 5764 5761 5758 5754 5751 5748 5744 5741 5737 5733 5730 5727 5723 5720 5717 5715 5712 5710 5708 5706 5703 5701 5700 5698 5697 5695 5694 5694 5694 5694 5694 5694 5693 5693 5694
5781 5778 5775 5771 5768 5765 5762 5759 5756 5753 5749 5746 5742 5739 5735 5732 5728 5725 5721 5718 5715 5711 5709 5706 5703 5701 5699 5696 5694 5692 5690 5688 5687 5686 5685 5685 5684 5684 5684 5684 5684 5683 5684
5772 5769 5766 5763 5759 5756 5753 5750 5747 5743 5740 5737 5733 5730 5726 5723 5719 5716 5712 5709 5706 5703 5700 5697 5694 5692 5690 5687 5685 5683 5681 5679 5678 5677 5676 5675 5674 5674 5674 5674 5674 5674 5674
5762 5759 5757 5754 5751 5747 5744 5741 5737 5734 5731 5728 5725 5721 5718 5714 5710 5707 5703 5701 5698 5695 5692 5689 5686 5683 5681 5678 5676 5674 5672 5670 5669 5667 5666 5665 5665 5664 5664 5663 5664 5664 5663
5753 5750 5747 5744 5741 5738 5735 5732 5728 5725 5722 5719 5715 5712 5709 5705 5702 5698 5695 5692 5689 5686 5683 5680 5677 5675 5672 5670 5667 5665 5663 5661 5660 5658 5657 5656 5655 5654 5654 5654 5654 5654 5654
5744 5741 5738 5735 5732 5729 5726 5723 5719 5716 5713 5709 5706 5702 5699 5696 5693 5689 5686 5684 5680 5677 5675 5672 5669 5666 5664 5661 5659 5657 5655 5653 5651 5649 5648 5647 5646 5645 5644 5644 5644 5644 5645
5736 5733 5730 5726 5723 5720 5716 5713 5710 5707 5703 5700 5696 5693 5690 5687 5684 5680 5677 5674 5671 5669 5666 5663 5661 5658 5655 5653 5650 5648 5646 5644 5642 5640 5639 5637 5637 5636 5635 5635 5634 5634 5635
5728 5725 5721 5718 5714 5711 5708 5704 5701 5697 5694 5690 5686 5683 5680 5677 5674 5671 5668 5665 5662 5660 5657 5655 5652 5650 5647 5644 5642 5639 5637 5635 5633 5630 5629 5627 5627 5626 5626 5625 5625 5625 5625
5719 5716 5713 5710 5706 5702 5699 5695 5692 5688 5684 5680 5676 5673 5670 5668 5665 5663 5660 5657 5654 5651 5649 5646 5644 5641 5639 5636 5633 5630 5628 5626 5624 5622 5620 5619 5618 5618 5617 5617 5617 5617 5617
5711 5708 5705 5701 5698 5694 5691 5687 5683 5679 5675 5671 5667 5664 5662 5659 5657 5654 5652 5649 5646 5644 5641 5638 5636 5633 5631 5628 5625 5622 5620 5617 5615 5613 5612 5611 5610 5609 5609 5609 5609 5609 5608
5704 5700 5697 5694 5690 5687 5683 5679 5676 5672 5667 5663 5660 5657 5654 5651 5649 5646 5644 5641 5639 5636 5633 5630 5628 5625 5623 5620 5617 5614 5612 5609 5607 5605 5604 5603 5602 5601 5601 5601 5601 5600 5600